Half Moon Bay, CA

7:13 PM PST on December 08, 2019 (GMT -0800)
Half Moon Bay

Weather History for KHAF - November, 2019

Change the Weather History Date:

Thursday, November 14, 2019

  Actual Average Record
Temperature  
Mean Temperature 55 °F -  
Max Temperature 59 °F 61 °F 71 °F (2012)
Min Temperature 51 °F 46 °F 39 °F (2015)
Degree Days  
Heating Degree Days 10    
Growing Degree Days 5 (Base 50)    
Moisture  
Dew Point 52 °F    
Average Humidity 89    
Maximum Humidity 100    
Minimum Humidity 77    
Precipitation  
Precipitation 0.02 in - - ()
Sea Level Pressure  
Sea Level Pressure 30.09 in    
Wind  
Wind Speed 5 mph ()    
Max Wind Speed 16 mph    
Max Gust Speed 22 mph    
Visibility 8.7 miles    
Events Rain    
Averages and records for this station are not official NWS values.
T = Trace of Precipitation, MM = Missing Value Source: Averaged Metar Reports

Daily Weather History Graph

Daily Weather History Graph

Search for Another Location

Airport or City:

Astronomy

Nov. 14, 2019 Rise Set
Actual Time 6:48 AM PST 4:59 PM PST
Civil Twilight 6:20 AM PST 5:27 PM PST
Nautical Twilight 5:49 AM PST 5:59 PM PST
Astronomical Twilight 5:18 AM PST 6:30 PM PST
Moon 6:51 PM PST (11/14) 8:48 AM PST (11/14)
Length of Visible Light 11h 07m
Length of Day
10h 11m
Waning Gibbous, 95% of the Moon is Illuminated
Nov 14
Waning Gibbous
Nov 19
Last Quarter
Nov 26
New
Dec 3
First Quarter
Dec 11
Full

Hourly Weather History & Observations

Time (PST) Temp. Dew Point Humidity Pressure Visibility Wind Dir Wind Speed Gust Speed Precip Events Conditions
12:00 AM 55.4 °F 50.0 °F 82% 30.03 in 10.0 mi ESE 5.8 mph - N/A   Overcast
12:15 AM 55.4 °F 50.0 °F 82% 30.03 in 10.0 mi SE 6.9 mph - N/A   Overcast
12:20 AM 55.4 °F 50.0 °F 82% 30.03 in 10.0 mi SE 5.8 mph - N/A   Overcast
12:35 AM 55.4 °F 50.0 °F 82% 30.04 in 10.0 mi ESE 5.8 mph - N/A   Overcast
12:55 AM 55.4 °F 50.0 °F 82% 30.03 in 10.0 mi SE 8.1 mph - N/A   Overcast
1:00 AM 55.4 °F 50.0 °F 82% 30.03 in 10.0 mi SE 6.9 mph - N/A   Overcast
1:15 AM 55.4 °F 50.0 °F 82% 30.03 in 10.0 mi SE 5.8 mph - N/A   Overcast
1:20 AM 55.4 °F 50.0 °F 82% 30.03 in 10.0 mi ESE 5.8 mph - N/A   Overcast
1:35 AM 55.4 °F 50.0 °F 82% 30.04 in 10.0 mi ESE 5.8 mph - N/A   Overcast
1:40 AM 55.4 °F 50.0 °F 82% 30.03 in 10.0 mi ESE 6.9 mph - N/A   Overcast
1:55 AM 55.4 °F 50.0 °F 82% 30.04 in 10.0 mi SE 4.6 mph - N/A   Overcast
2:00 AM 55.4 °F 50.0 °F 82% 30.04 in 10.0 mi SE 4.6 mph - N/A   Overcast
2:15 AM 55.4 °F 50.0 °F 82% 30.04 in 10.0 mi SE 3.5 mph - N/A   Overcast
2:20 AM 55.4 °F 50.0 °F 82% 30.03 in 10.0 mi ESE 3.5 mph - N/A   Overcast
2:35 AM 55.4 °F 50.0 °F 82% 30.04 in 10.0 mi SE 3.5 mph - N/A   Overcast
2:55 AM 55.4 °F 48.2 °F 77% 30.04 in 10.0 mi SE 3.5 mph - N/A   Overcast
3:00 AM 53.6 °F 48.2 °F 82% 30.04 in 10.0 mi SE 3.5 mph - N/A   Overcast
3:15 AM 53.6 °F 48.2 °F 82% 30.03 in 10.0 mi Calm Calm - N/A   Overcast
3:20 AM 53.6 °F 48.2 °F 82% 30.03 in 10.0 mi SE 3.5 mph - N/A   Overcast
3:35 AM 53.6 °F 48.2 °F 82% 30.03 in 10.0 mi Calm Calm - N/A   Overcast
3:40 AM 53.6 °F 48.2 °F 82% 30.04 in 10.0 mi Calm Calm - N/A   Overcast
3:55 AM 53.6 °F 48.2 °F 82% 30.04 in 10.0 mi Calm Calm - N/A   Overcast
4:00 AM 53.6 °F 48.2 °F 82% 30.04 in 10.0 mi Calm Calm - N/A   Overcast
4:15 AM 53.6 °F 48.2 °F 82% 30.04 in 10.0 mi Calm Calm - N/A   Overcast
4:35 AM 53.6 °F 48.2 °F 82% 30.03 in 10.0 mi Calm Calm - N/A   Overcast
4:40 AM 53.6 °F 48.2 °F 82% 30.04 in 10.0 mi Calm Calm - N/A   Overcast
4:55 AM 51.8 °F 48.2 °F 88% 30.04 in 10.0 mi Calm Calm - N/A   Overcast
5:00 AM 51.8 °F 48.2 °F 88% 30.04 in 10.0 mi Calm Calm - N/A   Overcast
5:15 AM 51.8 °F 48.2 °F 88% 30.04 in 10.0 mi Calm Calm - N/A   Overcast
5:35 AM 51.8 °F 48.2 °F 88% 30.04 in 10.0 mi Calm Calm - N/A   Overcast
5:40 AM 51.8 °F 48.2 °F 88% 30.04 in 10.0 mi SE 3.5 mph - N/A   Overcast
5:55 AM 53.6 °F 48.2 °F 82% 30.04 in 10.0 mi SE 4.6 mph - N/A   Overcast
6:00 AM 53.6 °F 48.2 °F 82% 30.04 in 10.0 mi SE 4.6 mph - N/A   Overcast
6:15 AM 53.6 °F 48.2 °F 82% 30.05 in 10.0 mi ESE 5.8 mph - N/A   Overcast
6:35 AM 55.4 °F 48.2 °F 77% 30.05 in 10.0 mi SE 5.8 mph - N/A   Overcast
6:40 AM 55.4 °F 48.2 °F 77% 30.05 in 10.0 mi SE 5.8 mph - N/A   Overcast
6:55 AM 55.4 °F 50.0 °F 82% 30.05 in 10.0 mi SE 4.6 mph - N/A   Overcast
7:00 AM 55.4 °F 50.0 °F 82% 30.05 in 10.0 mi SE 4.6 mph - N/A   Overcast
7:15 AM 55.4 °F 50.0 °F 82% 30.06 in 10.0 mi SSE 3.5 mph - N/A   Overcast
7:20 AM 55.4 °F 50.0 °F 82% 30.06 in 10.0 mi SE 4.6 mph - N/A   Overcast
7:35 AM 55.4 °F 50.0 °F 82% 30.07 in 10.0 mi SE 4.6 mph - N/A   Overcast
7:40 AM 55.4 °F 50.0 °F 82% 30.07 in 10.0 mi SE 4.6 mph - N/A   Overcast
7:55 AM 57.2 °F 50.0 °F 77% 30.07 in 10.0 mi SE 6.9 mph - N/A   Overcast
8:15 AM 57.2 °F 50.0 °F 77% 30.07 in 10.0 mi SE 6.9 mph - N/A   Overcast
8:35 AM 57.2 °F 51.8 °F 82% 30.07 in 10.0 mi SSE 6.9 mph - N/A   Overcast
8:40 AM 57.2 °F 51.8 °F 82% 30.08 in 10.0 mi SSE 8.1 mph - N/A   Overcast
8:55 AM 57.2 °F 51.8 °F 82% 30.08 in 10.0 mi SSE 11.5 mph - N/A   Overcast
9:00 AM 57.2 °F 51.8 °F 82% 30.08 in 10.0 mi SSE 9.2 mph - N/A   Overcast
9:15 AM 57.2 °F 51.8 °F 82% 30.08 in 10.0 mi South 8.1 mph - N/A   Overcast
9:20 AM 57.2 °F 53.6 °F 88% 30.09 in 10.0 mi South 10.4 mph - N/A   Overcast
9:35 AM 57.2 °F 53.6 °F 88% 30.09 in 9.0 mi South 10.4 mph - N/A   Overcast
9:40 AM 57.2 °F 53.6 °F 88% 30.09 in 9.0 mi South 11.5 mph - N/A   Overcast
9:55 AM 57.2 °F 53.6 °F 88% 30.09 in 10.0 mi SSE 10.4 mph - N/A   Overcast
10:15 AM 57.2 °F 53.6 °F 88% 30.09 in 10.0 mi SSE 10.4 mph - N/A   Overcast
10:35 AM 59.0 °F 53.6 °F 82% 30.09 in 10.0 mi SSE 10.4 mph - N/A   Overcast
10:40 AM 59.0 °F 53.6 °F 82% 30.09 in 10.0 mi SSE 10.4 mph - N/A   Overcast
10:55 AM 59.0 °F 53.6 °F 82% 30.09 in 10.0 mi South 12.7 mph 17.3 mph N/A   Overcast
11:00 AM 59.0 °F 53.6 °F 82% 30.10 in 10.0 mi South 12.7 mph 17.3 mph N/A   Overcast
11:15 AM 59.0 °F 53.6 °F 82% 30.09 in 10.0 mi South 12.7 mph 18.4 mph N/A   Overcast
11:20 AM 59.0 °F 53.6 °F 82% 30.10 in 10.0 mi South 12.7 mph 18.4 mph N/A   Overcast
11:35 AM 59.0 °F 53.6 °F 82% 30.10 in 10.0 mi South 13.8 mph 17.3 mph N/A   Overcast
11:40 AM 59.0 °F 53.6 °F 82% 30.10 in 10.0 mi South 13.8 mph 17.3 mph N/A   Overcast
11:55 AM 59.0 °F 53.6 °F 82% 30.10 in 10.0 mi South 13.8 mph 18.4 mph N/A   Overcast
12:15 PM 57.2 °F 53.6 °F 88% 30.10 in 7.0 mi South 16.1 mph 21.9 mph N/A   Overcast
12:20 PM 57.2 °F 53.6 °F 88% 30.10 in 6.0 mi South 15.0 mph 21.9 mph N/A   Haze
12:35 PM 57.2 °F 53.6 °F 88% 30.11 in 3.0 mi South 11.5 mph 20.7 mph N/A   Overcast
12:40 PM 57.2 °F 53.6 °F 88% 30.11 in 5.0 mi South 10.4 mph 16.1 mph N/A   Overcast
12:55 PM 55.4 °F 53.6 °F 94% 30.11 in 0.8 mi South 9.2 mph - N/A Rain Light Rain
1:00 PM 55.4 °F 53.6 °F 94% 30.11 in 0.8 mi SSW 8.1 mph - N/A Rain Light Rain
1:35 PM 55.4 °F 53.6 °F 94% 30.11 in 0.8 mi South 6.9 mph - N/A   Overcast
1:55 PM 55.4 °F 55.4 °F 100% 30.11 in 2.5 mi South 8.1 mph - N/A   Overcast
2:15 PM 55.4 °F 55.4 °F 100% 30.11 in 0.8 mi South 10.4 mph - N/A Rain Light Rain
2:35 PM 55.4 °F 55.4 °F 100% 30.11 in 1.2 mi South 9.2 mph - N/A Rain Light Rain
2:55 PM 55.4 °F 55.4 °F 100% 30.11 in 0.8 mi West 5.8 mph - N/A Rain Light Rain
3:00 PM 55.4 °F 55.4 °F 100% 30.11 in 0.8 mi West 5.8 mph - N/A Rain Light Rain
3:15 PM 55.4 °F 53.6 °F 94% 30.11 in 0.8 mi NW 6.9 mph - N/A Rain Light Rain
3:35 PM 55.4 °F 55.4 °F 100% 30.11 in 3.0 mi NW 3.5 mph - N/A   Scattered Clouds
3:55 PM 55.4 °F 55.4 °F 100% 30.10 in 10.0 mi NNE 3.5 mph - 0.01 in   Overcast
4:00 PM 55.4 °F 55.4 °F 100% 30.10 in 10.0 mi Calm Calm - 0.01 in   Overcast
4:15 PM 55.4 °F 53.6 °F 94% 30.10 in 10.0 mi Calm Calm - N/A   Overcast
4:35 PM 55.4 °F 53.6 °F 94% 30.11 in 5.0 mi Calm Calm - N/A   Overcast
4:40 PM 55.4 °F 53.6 °F 94% 30.11 in 2.5 mi Calm Calm - N/A   Overcast
4:55 PM 55.4 °F 53.6 °F 94% 30.11 in 7.0 mi Calm Calm - N/A   Overcast
5:00 PM 55.4 °F 53.6 °F 94% 30.11 in 8.0 mi Calm Calm - N/A   Overcast
5:15 PM 55.4 °F 53.6 °F 94% 30.11 in 10.0 mi Calm Calm - N/A   Overcast
5:20 PM 55.4 °F 53.6 °F 94% 30.11 in 10.0 mi South 3.5 mph - N/A   Overcast
5:40 PM 55.4 °F 53.6 °F 94% 30.12 in 2.5 mi Calm Calm - N/A   Overcast
6:15 PM 53.6 °F 53.6 °F 100% 30.13 in 10.0 mi SSE 4.6 mph - N/A   Overcast
6:35 PM 53.6 °F 53.6 °F 100% 30.14 in 10.0 mi Calm Calm - N/A   Overcast
6:40 PM 55.4 °F 53.6 °F 94% 30.14 in 10.0 mi Calm Calm - N/A   Overcast
6:55 PM 55.4 °F 53.6 °F 94% 30.14 in 10.0 mi Calm Calm - N/A   Overcast
7:20 PM 55.4 °F 53.6 °F 94% 30.14 in 8.0 mi SE 3.5 mph - N/A   Overcast
7:35 PM 55.4 °F 53.6 °F 94% 30.14 in 8.0 mi SE 3.5 mph - N/A   Overcast
7:40 PM 55.4 °F 53.6 °F 94% 30.15 in 8.0 mi Calm Calm - N/A   Overcast
7:55 PM 55.4 °F 53.6 °F 94% 30.15 in 5.0 mi Calm Calm - N/A   Overcast
8:15 PM 55.4 °F 53.6 °F 94% 30.15 in 9.0 mi Calm Calm - N/A   Overcast
8:35 PM 55.4 °F 53.6 °F 94% 30.15 in 9.0 mi ESE 3.5 mph - N/A   Overcast
8:40 PM 55.4 °F 53.6 °F 94% 30.15 in 9.0 mi ESE 3.5 mph - N/A   Overcast
8:55 PM 55.4 °F 53.6 °F 94% 30.15 in 10.0 mi East 3.5 mph - N/A   Overcast
9:00 PM 53.6 °F 53.6 °F 100% 30.15 in 10.0 mi Calm Calm - N/A   Overcast
9:15 PM 53.6 °F 53.6 °F 100% 30.15 in 9.0 mi Calm Calm - N/A   Overcast
9:20 PM 53.6 °F 53.6 °F 100% 30.15 in 10.0 mi Calm Calm - N/A   Overcast
9:35 PM 53.6 °F 53.6 °F 100% 30.16 in 9.0 mi Calm Calm - N/A   Overcast
9:40 PM 53.6 °F 53.6 °F 100% 30.16 in 9.0 mi Calm Calm - N/A   Overcast
9:55 PM 53.6 °F 53.6 °F 100% 30.16 in 10.0 mi Calm Calm - N/A   Overcast
10:00 PM 53.6 °F 53.6 °F 100% 30.16 in 10.0 mi Calm Calm - N/A   Overcast
10:15 PM 53.6 °F 53.6 °F 100% 30.16 in 8.0 mi Calm Calm - N/A   Overcast
10:35 PM 53.6 °F 53.6 °F 100% 30.16 in 8.0 mi Calm Calm - N/A   Overcast
10:55 PM 53.6 °F 53.6 °F 100% 30.16 in 10.0 mi Calm Calm - N/A   Overcast
11:00 PM 53.6 °F 53.6 °F 100% 30.16 in 10.0 mi Calm Calm - N/A   Overcast
11:15 PM 53.6 °F 53.6 °F 100% 30.16 in 10.0 mi Calm Calm - N/A   Overcast
11:20 PM 53.6 °F 53.6 °F 100% 30.16 in 10.0 mi Calm Calm - N/A   Overcast
11:35 PM 53.6 °F 53.6 °F 100% 30.17 in 10.0 mi Calm Calm - N/A   Overcast
11:40 PM 53.6 °F 53.6 °F 100% 30.16 in 10.0 mi Calm Calm - N/A   Overcast
11:55 PM 53.6 °F 53.6 °F 100% 30.17 in 10.0 mi Calm Calm - N/A   Overcast